Whitecourt, Alberta

4:57 AM MST on February 25, 2017 (GMT -0700)
Whitecourt Airport

Weather History for CXZU - February, 2013

Change the Weather History Date:

Saturday, February 23, 2013

  Actual Average (CYZU) Record (CYZU)
Temperature  
Mean Temperature 23 °F -  
Max Temperature 34 °F 28 °F 52 °F (2015)
Min Temperature 12 °F 10 °F -22 °F (2003)
Degree Days  
Heating Degree Days 42    
Moisture  
Dew Point 17 °F    
Average Humidity 71    
Maximum Humidity 88    
Minimum Humidity 46    
Precipitation  
Precipitation 0.00 in - - ()
Sea Level Pressure  
Sea Level Pressure 29.72 in    
Wind  
Wind Speed 7 mph ()    
Max Wind Speed 26 mph    
Max Gust Speed 43 mph    
Averages and records for this station are not official NWS values.
T = Trace of Precipitation, MM = Missing Value Source: Averaged Metar Reports

Daily Weather History Graph

Daily Weather History Graph

Search for Another Location

Airport or City:

Trip Planner

Search our weather history database for the weather conditions in past years. The results will help you decide how hot, cold, wet, or windy it might be!

Date:

Astronomy

Feb. 23, 2013 Rise Set
Actual Time 7:44 AM MST 6:08 PM MST
Civil Twilight 7:08 AM MST 6:45 PM MST
Nautical Twilight 6:27 AM MST 7:26 PM MST
Astronomical Twilight 5:46 AM MST 8:07 PM MST
Moon 4:14 PM MST (2/23) 6:21 AM MST (2/23)
Length of Visible Light 11h 36m
Length of Day
10h 24m
Waxing Gibbous, 95% of the Moon is Illuminated
Feb 23
Waxing Gibbous
Feb 25
Full
Mar 4
Last Quarter
Mar 11
New
Mar 19
First Quarter

Hourly Weather History & Observations

Time (MST) Temp. Windchill Dew Point Humidity Pressure Visibility Wind Dir Wind Speed Gust Speed Precip Events Conditions
12:00 AM 15.1 °F 6.4 °F 10.0 °F 80% 29.42 in - NNW 5.8 mph - N/A   Unknown
1:00 AM 15.1 °F - 9.3 °F 78% 29.44 in - WNW 1.2 mph - N/A   Unknown
2:00 AM 14.7 °F - 9.9 °F 81% 29.46 in - West 2.3 mph - N/A   Unknown
3:00 AM 16.9 °F 8.5 °F 11.1 °F 78% 29.48 in - NW 5.8 mph - N/A   Unknown
4:00 AM 14.9 °F - 10.0 °F 81% 29.50 in - WSW 2.3 mph - N/A   Unknown
5:00 AM 17 °F - 12 °F 73% 29.52 in - WNW 5.8 mph - -  
5:00 AM 17.4 °F 9.1 °F 12.2 °F 80% 29.52 in - WNW 5.8 mph - N/A   Unknown
6:00 AM 17.8 °F 7.5 °F 13.1 °F 82% 29.55 in - NW 8.1 mph - N/A   Unknown
7:00 AM 13.8 °F - 10.9 °F 88% 29.60 in - WNW 2.3 mph - N/A   Unknown
8:00 AM 14.4 °F 5.5 °F 10.9 °F 86% 29.64 in - WSW 5.8 mph - N/A   Unknown
9:00 AM 24.1 °F 16.0 °F 17.8 °F 77% 29.66 in - West 6.9 mph - N/A   Unknown
10:00 AM 28.4 °F 23.3 °F 18.1 °F 65% 29.68 in - WNW 4.6 mph - N/A   Unknown
11:00 AM 32 °F - 23 °F 59% 29.71 in - WNW 17.3 mph - -  
11:00 AM 31.6 °F 20.4 °F 23.2 °F 71% 29.71 in - WNW 17.3 mph 24.2 mph N/A   Unknown
12:00 PM 33.4 °F 22.0 °F 24.1 °F 69% 29.74 in - WNW 19.6 mph 32.2 mph N/A   Unknown
1:00 PM 31.8 °F 18.1 °F 22.6 °F 69% 29.77 in - WNW 26.5 mph 42.6 mph N/A   Unknown
2:00 PM 33.3 °F 21.8 °F 21.6 °F 62% 29.80 in - WNW 19.6 mph 27.6 mph N/A   Unknown
3:00 PM 33.6 °F 22.2 °F 20.5 °F 59% 29.83 in - NW 19.6 mph 27.6 mph N/A   Unknown
4:00 PM 33.6 °F 23.3 °F 19.9 °F 57% 29.86 in - NW 16.1 mph 25.3 mph N/A   Unknown
5:00 PM 33 °F - 20 °F 46% 29.88 in - NW 18.4 mph - -  
5:00 PM 33.1 °F 21.9 °F 19.9 °F 59% 29.88 in - NW 18.4 mph 26.5 mph N/A   Unknown
6:00 PM 31.1 °F 23.7 °F 19.2 °F 61% 29.91 in - WNW 8.1 mph - N/A   Unknown
7:00 PM 28.4 °F 23.3 °F 18.7 °F 67% 29.95 in - WNW 4.6 mph - N/A   Unknown
8:00 PM 26.2 °F 22.1 °F 17.8 °F 70% 29.95 in - West 3.5 mph - N/A   Unknown
9:00 PM 26.4 °F 18.9 °F 18.0 °F 70% 29.95 in - West 6.9 mph - N/A   Unknown
10:00 PM 24.6 °F 20.3 °F 17.4 °F 74% 29.95 in - NW 3.5 mph - N/A   Unknown
11:00 PM 25 °F - 18 °F 65% 29.95 in - WSW 2.3 mph - -  
11:00 PM 25.0 °F - 18.0 °F 75% 29.95 in - WSW 2.3 mph - N/A   Unknown